Temp
-11 -11 -11 -11 -11 -11 -11 -11 -11 -11 -10 -10 -10 -10 -10 -10 -10 -11 -11 -11 -12 -12 -13 -16 -17 -18 -18 -19 -19 -19 -19 -20 -20 -19 -19 -19 -19 -19 -19 -19 -19 -18 -17 -17 -17 -17 -17
-11 -11 -11 -11 -11 -11 -11 -11 -11 -11 -11 -10 -10 -10 -10 -10 -11 -11 -11 -12 -12 -13 -14 -16 -17 -18 -18 -19 -19 -19 -20 -20 -20 -19 -19 -19 -19 -19 -19 -19 -20 -19 -19 -18 -18 -18 -17
-11 -11 -11 -11 -11 -11 -11 -11 -11 -11 -11 -11 -10 -10 -10 -11 -11 -11 -12 -12 -12 -13 -15 -17 -18 -19 -19 -19 -19 -19 -20 -20 -19 -19 -19 -19 -19 -19 -20 -19 -20 -19 -19 -19 -18 -18 -17
-12 -11 -11 -11 -11 -11 -12 -11 -11 -12 -11 -11 -11 -11 -11 -11 -11 -11 -12 -12 -13 -14 -16 -18 -18 -19 -19 -19 -19 -20 -20 -20 -19 -19 -19 -19 -19 -19 -19 -19 -20 -20 -19 -19 -18 -18 -17
-12 -11 -11 -11 -11 -12 -12 -12 -12 -12 -12 -11 -11 -11 -11 -11 -12 -12 -12 -12 -13 -14 -16 -18 -19 -19 -19 -19 -19 -19 -20 -19 -19 -19 -19 -19 -19 -19 -20 -20 -19 -19 -19 -19 -18 -18 -17
-12 -12 -11 -11 -12 -12 -12 -12 -12 -12 -12 -12 -11 -11 -11 -11 -12 -12 -12 -12 -13 -14 -16 -18 -18 -18 -19 -19 -19 -19 -19 -19 -19 -19 -19 -19 -19 -19 -19 -20 -19 -19 -19 -19 -18 -17 -17
-12 -12 -12 -12 -12 -12 -12 -12 -12 -12 -12 -12 -12 -12 -12 -12 -12 -12 -12 -12 -13 -14 -15 -17 -18 -19 -19 -19 -19 -19 -19 -19 -19 -19 -19 -19 -19 -19 -19 -19 -19 -19 -19 -19 -19 -19 -18
-12 -12 -12 -12 -12 -12 -12 -12 -12 -12 -12 -12 -12 -12 -12 -12 -12 -12 -12 -13 -13 -14 -15 -16 -17 -18 -19 -19 -19 -19 -19 -19 -19 -19 -19 -19 -19 -19 -19 -19 -19 -19 -19 -19 -19 -19 -18
-12 -13 -13 -13 -12 -12 -12 -12 -12 -12 -12 -12 -12 -12 -12 -12 -12 -12 -13 -13 -13 -13 -14 -15 -17 -18 -18 -19 -19 -19 -19 -19 -19 -19 -19 -19 -19 -19 -19 -19 -19 -19 -19 -19 -19 -19 -19
-13 -13 -13 -13 -13 -13 -13 -12 -12 -12 -12 -13 -13 -13 -12 -13 -13 -13 -13 -13 -13 -13 -14 -14 -16 -17 -17 -18 -19 -19 -19 -19 -19 -20 -19 -19 -19 -19 -19 -19 -19 -19 -19 -19 -20 -19 -19
-13 -13 -13 -13 -13 -13 -13 -13 -13 -13 -13 -13 -13 -13 -13 -13 -13 -13 -13 -13 -13 -13 -14 -14 -15 -16 -16 -17 -18 -19 -19 -19 -19 -19 -19 -19 -20 -20 -20 -20 -20 -20 -20 -20 -20 -20 -20
-14 -14 -14 -14 -14 -14 -14 -13 -13 -13 -13 -13 -13 -13 -13 -13 -13 -13 -13 -13 -13 -13 -14 -14 -14 -16 -16 -17 -17 -18 -19 -20 -19 -19 -19 -19 -19 -20 -20 -20 -20 -21 -21 -20 -19 -19 -20
-14 -14 -14 -14 -14 -14 -14 -14 -14 -13 -13 -13 -13 -13 -13 -13 -13 -13 -13 -13 -13 -13 -14 -14 -14 -15 -16 -16 -16 -17 -18 -19 -19 -19 -19 -19 -20 -19 -20 -19 -20 -20 -20 -20 -19 -19 -18
-14 -14 -14 -14 -14 -14 -14 -14 -14 -14 -14 -14 -13 -13 -13 -13 -13 -13 -14 -13 -13 -13 -14 -14 -14 -14 -15 -16 -16 -16 -17 -18 -18 -19 -19 -19 -19 -19 -20 -19 -19 -19 -19 -19 -19 -19 -19
-15 -14 -15 -14 -14 -14 -14 -14 -14 -14 -14 -14 -14 -14 -14 -14 -13 -13 -14 -14 -14 -14 -14 -14 -14 -14 -14 -15 -16 -16 -16 -17 -17 -18 -19 -19 -19 -19 -19 -19 -20 -19 -19 -19 -19 -19 -18
-15 -15 -15 -15 -15 -14 -14 -14 -14 -15 -14 -14 -14 -14 -14 -14 -14 -14 -14 -14 -14 -14 -14 -14 -14 -14 -14 -15 -15 -16 -16 -16 -16 -17 -17 -18 -19 -19 -19 -19 -19 -19 -19 -19 -19 -19 -18
-15 -15 -15 -15 -15 -15 -15 -15 -15 -15 -15 -15 -14 -14 -14 -14 -14 -14 -14 -14 -14 -14 -14 -14 -14 -14 -14 -14 -15 -15 -16 -16 -16 -16 -17 -17 -18 -18 -18 -18 -18 -18 -19 -19 -18 -18 -18
-15 -15 -15 -15 -15 -15 -15 -15 -15 -15 -15 -15 -15 -15 -15 -15 -15 -14 -14 -14 -14 -14 -14 -14 -14 -14 -14 -14 -14 -15 -15 -16 -16 -16 -16 -16 -16 -16 -17 -17 -17 -17 -17 -17 -17 -17 -17
-15 -15 -15 -15 -15 -15 -15 -15 -15 -15 -15 -15 -15 -15 -15 -15 -15 -15 -15 -15 -14 -14 -14 -14 -14 -14 -14 -14 -14 -14 -14 -15 -15 -15 -16 -16 -16 -16 -16 -16 -16 -16 -16 -16 -16 -16 -16
-16 -16 -16 -15 -15 -15 -15 -15 -15 -15 -15 -15 -15 -15 -15 -15 -15 -15 -15 -15 -15 -14 -14 -14 -14 -14 -14 -14 -14 -14 -14 -14 -14 -15 -15 -15 -15 -15 -16 -16 -16 -16 -15 -15 -15 -15 -15
-17 -16 -16 -16 -16 -16 -15 -15 -15 -15 -15 -15 -15 -15 -15 -15 -15 -15 -15 -15 -15 -14 -14 -14 -14 -14 -14 -14 -14 -14 -14 -15 -15 -14 -14 -15 -15 -15 -15 -15 -15 -15 -15 -15 -15 -15 -15
-17 -17 -16 -16 -16 -16 -16 -16 -16 -16 -16 -16 -16 -16 -16 -16 -15 -16 -16 -15 -15 -15 -15 -15 -15 -14 -15 -14 -14 -14 -14 -14 -14 -14 -15 -15 -15 -15 -15 -15 -15 -15 -15 -15 -15 -14 -15
-18 -17 -17 -18 -17 -17 -17 -16 -16 -16 -16 -17 -16 -16 -16 -16 -16 -16 -16 -16 -15 -15 -15 -15 -15 -15 -15 -15 -14 -15 -15 -15 -14 -14 -14 -14 -14 -14 -15 -14 -14 -15 -15 -15 -15 -15 -14
-17 -18 -18 -17 -17 -17 -18 -17 -17 -17 -16 -16 -16 -17 -16 -16 -16 -16 -16 -16 -16 -15 -15 -15 -15 -15 -15 -15 -15 -15 -15 -15 -15 -14 -14 -14 -14 -14 -14 -14 -14 -14 -14 -14 -14 -14 -14
-16 -17 -18 -18 -17 -17 -17 -17 -17 -17 -17 -17 -17 -17 -17 -16 -16 -16 -16 -16 -16 -15 -15 -15 -15 -15 -15 -15 -15 -15 -15 -15 -14 -14 -14 -14 -14 -14 -14 -14 -14 -14 -14 -14 -14 -14 -15
-16 -17 -17 -18 -19 -18 -18 -18 -18 -18 -18 -18 -17 -17 -17 -16 -16 -16 -16 -16 -15 -15 -15 -15 -15 -15 -15 -15 -15 -15 -15 -15 -15 -14 -14 -14 -14 -14 -14 -14 -14 -15 -15 -14 -14 -14 -14
-16 -17 -17 -17 -18 -19 -19 -18 -18 -18 -19 -18 -18 -17 -17 -17 -17 -16 -16 -15 -15 -15 -15 -15 -15 -15 -16 -15 -16 -16 -16 -15 -15 -15 -15 -15 -15 -15 -15 -15 -15 -15 -15 -15 -15 -14 -14
-16 -17 -18 -17 -18 -18 -18 -19 -19 -18 -19 -18 -18 -18 -17 -17 -17 -17 -16 -15 -15 -16 -16 -16 -16 -16 -16 -16 -16 -16 -16 -16 -15 -16 -16 -15 -15 -15 -15 -15 -15 -16 -15 -15 -15 -14 -14
-17 -17 -17 -18 -17 -18 -18 -18 -18 -18 -19 -18 -17 -18 -18 -17 -17 -17 -16 -16 -16 -16 -16 -16 -16 -16 -16 -16 -16 -16 -16 -16 -16 -15 -15 -15 -16 -15 -15 -16 -16 -15 -15 -15 -14 -14 -14
Height
5832 5831 5830 5829 5826 5824 5822 5819 5815 5811 5808 5805 5801 5798 5795 5791 5786 5780 5773 5764 5754 5741 5726 5713 5702 5692 5686 5681 5677 5672 5669 5666 5664 5662 5661 5661 5661 5661 5663 5666 5668 5673 5680 5689 5697 5703 5710
5831 5830 5829 5827 5825 5823 5821 5818 5814 5810 5807 5804 5800 5797 5794 5790 5784 5778 5770 5761 5750 5736 5722 5710 5699 5691 5685 5680 5674 5670 5668 5665 5664 5662 5661 5659 5658 5659 5660 5662 5665 5669 5672 5680 5687 5694 5704
5829 5828 5827 5825 5823 5822 5819 5817 5813 5809 5806 5803 5799 5796 5793 5788 5783 5776 5768 5759 5748 5734 5720 5708 5698 5689 5684 5680 5674 5669 5666 5665 5663 5662 5660 5658 5656 5657 5658 5658 5660 5664 5668 5674 5683 5692 5702
5827 5826 5825 5824 5822 5820 5818 5815 5812 5808 5805 5802 5799 5795 5792 5787 5781 5774 5767 5758 5746 5734 5720 5708 5698 5689 5683 5678 5673 5669 5666 5664 5663 5661 5659 5657 5655 5656 5658 5659 5659 5663 5668 5673 5681 5690 5699
5825 5824 5823 5821 5820 5818 5816 5814 5811 5808 5804 5802 5799 5795 5791 5786 5780 5774 5766 5758 5747 5734 5722 5710 5700 5690 5685 5679 5674 5670 5666 5664 5663 5662 5660 5656 5655 5655 5657 5659 5661 5664 5669 5672 5680 5688 5698
5822 5821 5821 5819 5818 5816 5815 5812 5810 5806 5803 5801 5798 5794 5790 5785 5780 5774 5767 5758 5748 5737 5724 5714 5702 5695 5686 5681 5677 5673 5669 5666 5665 5663 5663 5659 5658 5657 5658 5662 5664 5667 5672 5676 5680 5689 5698
5819 5819 5818 5817 5815 5814 5812 5811 5808 5805 5802 5799 5797 5793 5789 5785 5779 5774 5768 5760 5752 5741 5728 5715 5705 5694 5687 5684 5679 5676 5671 5669 5668 5667 5666 5664 5664 5662 5662 5663 5666 5669 5672 5676 5682 5688 5695
5817 5816 5816 5815 5813 5811 5809 5808 5806 5804 5801 5798 5795 5792 5788 5784 5779 5774 5769 5762 5753 5744 5732 5720 5709 5700 5691 5686 5683 5680 5678 5675 5671 5670 5668 5668 5666 5667 5667 5669 5670 5672 5674 5677 5680 5688 5695
5814 5813 5813 5812 5810 5808 5806 5805 5804 5802 5799 5796 5794 5791 5787 5783 5779 5775 5770 5763 5755 5746 5737 5726 5714 5706 5697 5691 5686 5683 5681 5678 5676 5674 5672 5671 5671 5670 5670 5671 5672 5674 5675 5678 5683 5687 5692
5812 5811 5810 5809 5808 5806 5804 5802 5801 5800 5798 5795 5792 5790 5787 5783 5780 5775 5770 5764 5757 5749 5740 5733 5722 5713 5704 5696 5691 5687 5683 5682 5678 5676 5674 5674 5673 5673 5673 5674 5675 5676 5678 5679 5684 5689 5693
5810 5808 5808 5807 5806 5804 5802 5800 5799 5797 5796 5794 5791 5788 5785 5782 5779 5775 5772 5766 5760 5753 5745 5738 5728 5719 5711 5704 5697 5692 5688 5684 5681 5679 5678 5678 5676 5676 5676 5677 5677 5679 5680 5683 5686 5689 5693
5807 5806 5805 5805 5804 5803 5800 5799 5796 5795 5793 5792 5789 5787 5783 5782 5779 5775 5771 5767 5762 5758 5750 5743 5735 5726 5718 5710 5703 5697 5693 5689 5685 5684 5683 5681 5681 5682 5681 5681 5682 5683 5685 5686 5688 5690 5693
5803 5803 5802 5801 5801 5800 5799 5797 5795 5793 5791 5790 5787 5785 5783 5780 5778 5775 5771 5768 5765 5757 5754 5748 5739 5733 5725 5718 5711 5704 5699 5695 5691 5690 5689 5687 5686 5686 5686 5687 5687 5688 5689 5691 5692 5692 5696
5798 5799 5798 5797 5797 5797 5796 5795 5793 5791 5789 5787 5786 5783 5781 5779 5777 5774 5771 5768 5764 5759 5755 5751 5743 5738 5731 5725 5719 5712 5707 5702 5699 5696 5694 5693 5692 5691 5689 5690 5690 5691 5693 5694 5695 5696 5698
5792 5793 5794 5794 5793 5793 5792 5792 5791 5789 5787 5785 5783 5781 5780 5777 5775 5772 5771 5768 5764 5761 5757 5753 5748 5742 5736 5731 5726 5721 5715 5710 5706 5703 5702 5699 5698 5697 5697 5695 5695 5695 5696 5697 5697 5699 5700
5784 5786 5787 5788 5788 5788 5789 5788 5787 5786 5784 5783 5781 5779 5777 5775 5773 5772 5770 5767 5764 5761 5757 5754 5751 5746 5739 5735 5731 5726 5723 5718 5713 5710 5708 5707 5706 5704 5703 5702 5703 5702 5702 5703 5702 5703 5703
5775 5777 5780 5781 5782 5782 5782 5783 5783 5782 5781 5780 5778 5776 5774 5772 5771 5769 5767 5765 5763 5760 5757 5755 5751 5748 5744 5739 5735 5731 5728 5725 5720 5716 5714 5712 5711 5712 5711 5710 5709 5708 5707 5706 5707 5707 5708
5766 5768 5770 5772 5774 5776 5776 5776 5777 5777 5776 5776 5775 5774 5771 5769 5769 5767 5765 5763 5761 5758 5756 5754 5751 5748 5746 5743 5738 5735 5731 5728 5725 5723 5720 5718 5716 5714 5713 5713 5713 5712 5711 5712 5712 5713 5712
5754 5757 5760 5762 5764 5766 5768 5769 5770 5770 5770 5770 5770 5769 5768 5766 5764 5763 5762 5760 5758 5756 5754 5751 5749 5747 5745 5743 5741 5736 5734 5731 5728 5725 5724 5722 5720 5718 5716 5716 5715 5715 5715 5715 5716 5716 5717
5739 5744 5749 5752 5755 5756 5758 5760 5762 5762 5763 5763 5763 5763 5762 5761 5760 5758 5756 5756 5754 5752 5751 5748 5746 5745 5743 5743 5740 5738 5734 5732 5730 5727 5725 5723 5722 5721 5719 5718 5717 5716 5716 5717 5718 5719 5720
5726 5730 5736 5739 5742 5746 5748 5750 5752 5753 5754 5755 5755 5755 5755 5755 5754 5752 5751 5750 5748 5747 5746 5744 5743 5741 5740 5739 5739 5737 5734 5732 5730 5728 5726 5724 5722 5721 5720 5719 5718 5718 5718 5718 5718 5719 5720
5711 5715 5720 5725 5729 5733 5736 5738 5741 5743 5744 5745 5746 5746 5746 5746 5746 5745 5743 5742 5741 5739 5739 5739 5737 5735 5734 5734 5734 5733 5732 5730 5729 5727 5725 5724 5723 5722 5720 5719 5718 5718 5717 5718 5718 5718 5718
5694 5700 5705 5710 5715 5719 5723 5726 5728 5731 5733 5733 5734 5735 5734 5737 5737 5736 5736 5733 5732 5731 5731 5730 5730 5729 5728 5728 5728 5727 5728 5727 5727 5726 5724 5722 5721 5720 5719 5718 5718 5718 5716 5716 5716 5715 5716
5675 5682 5688 5695 5700 5705 5709 5712 5715 5718 5720 5722 5723 5724 5725 5726 5726 5726 5726 5725 5723 5722 5721 5720 5720 5721 5721 5720 5720 5721 5721 5721 5721 5720 5720 5719 5718 5717 5717 5716 5715 5714 5713 5712 5712 5712 5711
5656 5662 5668 5676 5682 5689 5694 5698 5701 5703 5706 5709 5711 5713 5713 5713 5715 5717 5715 5714 5713 5712 5711 5710 5709 5710 5711 5711 5712 5712 5713 5714 5714 5715 5715 5714 5713 5712 5712 5711 5712 5711 5709 5708 5706 5707 5705
5636 5643 5649 5656 5665 5671 5677 5682 5686 5688 5691 5694 5697 5699 5700 5702 5705 5705 5704 5704 5703 5702 5702 5699 5699 5699 5700 5701 5702 5703 5705 5705 5706 5708 5709 5708 5707 5707 5705 5705 5705 5706 5704 5702 5700 5701 5697
5616 5623 5631 5637 5645 5652 5659 5665 5670 5673 5677 5681 5684 5685 5687 5689 5693 5692 5692 5692 5691 5691 5691 5689 5689 5689 5690 5691 5692 5695 5696 5697 5698 5699 5701 5699 5698 5699 5697 5696 5700 5697 5695 5693 5693 5693 5689
5597 5603 5611 5619 5626 5632 5638 5647 5653 5658 5662 5666 5670 5671 5675 5676 5677 5678 5679 5679 5679 5680 5680 5680 5681 5681 5681 5683 5684 5685 5686 5688 5690 5691 5690 5690 5689 5690 5689 5689 5690 5688 5685 5684 5681 5679 5678
5573 5581 5591 5599 5606 5613 5620 5629 5635 5642 5646 5650 5656 5658 5659 5661 5664 5664 5665 5667 5667 5669 5670 5670 5672 5673 5673 5674 5675 5675 5677 5679 5680 5681 5681 5681 5681 5680 5682 5681 5678 5674 5672 5670 5668 5666 5665
Wind_Speed
3 5 8 10 13 16 19 21 19 19 19 19 20 21 22 25 30 33 37 41 47 54 58 53 47 34 27 21 20 20 17 15 9 7 4 7 10 16 24 31 31 33 49 49 48 47 47
4 6 9 12 13 15 17 21 19 19 19 19 20 20 23 27 31 33 38 42 49 55 56 51 44 31 25 20 22 18 14 13 11 8 9 12 13 13 19 26 23 24 37 46 47 48 48
6 6 10 12 13 14 16 19 19 18 19 18 18 20 23 28 31 35 39 44 49 54 52 49 42 28 25 22 22 18 14 11 8 9 11 12 13 14 14 20 25 30 33 40 44 48 48
7 7 10 12 13 13 15 17 19 17 18 17 18 19 24 28 32 36 40 44 49 52 49 47 42 29 24 23 18 18 16 11 8 9 10 10 12 13 16 13 25 33 23 38 42 48 46
9 10 13 13 14 15 13 15 18 17 16 16 18 20 25 27 32 37 41 43 47 50 46 45 42 34 21 21 21 22 17 11 8 8 8 8 4 9 17 11 13 26 20 24 42 47 44
10 11 13 15 15 16 15 13 15 17 15 15 17 19 23 26 30 34 39 43 46 48 46 44 45 39 24 19 19 21 20 14 12 8 8 17 10 4 16 10 12 21 21 23 31 41 41
11 12 14 15 15 16 15 13 13 16 16 14 15 19 21 25 28 31 36 42 45 46 46 47 47 42 32 18 18 22 21 13 15 13 7 11 10 6 14 11 10 14 12 22 21 26 38
12 12 13 13 14 14 14 13 12 14 15 15 15 16 19 23 26 29 33 39 41 46 44 45 47 45 38 24 16 16 19 16 13 14 11 9 8 8 7 6 5 6 7 11 20 25 31
13 12 11 12 13 13 13 12 11 12 14 15 15 14 17 21 24 27 32 36 39 43 43 42 44 45 44 32 22 16 15 13 13 12 13 12 8 7 5 3 5 4 7 12 14 24 32
15 13 11 12 13 14 13 12 11 12 13 15 15 15 15 18 22 24 29 34 38 38 41 41 40 41 43 41 28 22 17 13 12 12 8 8 9 8 9 7 5 7 9 12 14 24 33
17 14 11 11 12 13 14 14 11 11 12 14 16 15 15 17 19 22 25 31 35 37 39 40 36 38 40 40 38 31 20 14 13 10 7 7 9 10 11 8 8 9 12 13 14 22 32
20 16 12 12 11 13 14 14 13 11 12 13 14 15 15 17 18 20 23 27 31 34 34 36 34 33 36 38 38 34 30 22 12 11 14 16 12 13 12 10 12 11 11 10 13 17 27
24 20 16 14 14 13 14 14 14 12 12 13 14 14 15 16 17 19 20 24 27 32 32 34 34 30 31 34 35 36 33 29 19 10 9 12 15 10 11 12 6 7 8 9 10 13 18
28 25 21 18 17 16 15 15 15 13 12 12 14 14 13 16 17 18 19 22 25 28 30 29 31 31 27 29 31 32 32 30 24 17 10 5 5 6 9 8 10 9 9 8 4 7 9
32 30 27 24 21 20 18 17 17 16 14 13 12 14 14 14 16 18 18 19 21 23 26 27 26 28 28 25 25 27 30 28 26 21 17 12 9 9 8 9 10 11 10 5 8 11 9
37 35 32 29 27 24 22 21 19 19 17 15 15 13 14 14 14 17 18 19 18 20 22 23 23 23 24 25 22 22 23 23 24 23 19 17 13 11 8 9 10 11 11 8 3 2 5
42 40 37 35 33 30 27 25 24 22 21 19 16 16 14 15 16 16 17 18 19 18 19 20 21 20 19 21 22 19 18 18 18 19 20 17 14 13 11 13 14 16 17 14 14 11 6
47 45 42 39 38 36 34 30 29 27 24 23 21 18 19 18 18 20 19 18 18 19 19 19 18 18 17 14 16 19 17 15 15 14 13 13 14 12 10 12 14 12 14 13 15 12 10
52 51 48 46 42 40 39 37 34 32 29 27 26 24 24 23 24 23 23 23 20 19 19 19 19 17 16 13 11 11 14 15 13 12 12 12 11 8 7 7 8 9 9 8 8 6 7
59 55 52 51 49 46 44 43 41 38 35 32 30 30 28 29 29 28 28 26 26 23 21 20 21 18 16 14 11 8 7 9 10 11 11 10 9 9 6 6 6 3 3 4 3 5 4
65 60 61 57 53 51 50 48 47 44 41 38 36 35 33 32 33 32 32 29 29 28 26 24 22 22 19 17 13 10 7 7 7 6 8 9 9 8 9 9 9 7 6 7 8 7 6
69 65 63 60 59 55 54 53 50 47 48 43 41 39 38 37 37 36 36 33 32 33 32 29 26 24 24 20 18 16 11 10 10 9 8 8 7 7 8 8 8 7 6 6 8 8 9
74 74 69 65 64 61 58 55 53 52 49 53 51 45 43 41 39 40 38 38 35 36 35 34 30 28 26 25 23 20 19 15 12 12 13 12 11 10 10 10 10 10 11 10 11 11 10
77 77 75 72 67 65 63 61 59 55 54 53 55 53 50 47 44 45 43 40 40 37 37 35 35 32 29 28 28 26 22 22 19 17 14 13 14 13 13 12 11 13 14 14 14 15 15
77 82 81 77 71 67 64 63 60 62 61 61 62 61 58 55 51 48 46 40 39 38 37 33 33 35 34 30 31 30 27 25 23 22 21 19 18 18 16 17 16 16 18 21 22 21 22
69 76 80 83 79 75 69 67 65 66 71 69 67 63 59 58 55 50 45 41 39 38 37 31 33 34 36 33 33 32 31 28 28 26 25 25 25 24 25 26 25 21 22 25 25 24 29
65 72 78 79 82 81 78 73 71 71 71 66 63 61 61 60 55 53 45 41 40 39 36 32 34 35 33 33 34 33 33 32 31 29 27 28 29 28 31 31 28 27 30 32 32 35 34
68 68 75 77 76 82 85 84 80 78 75 74 68 66 61 55 51 47 44 42 40 36 33 30 31 30 31 31 33 34 35 33 32 32 31 32 32 32 32 31 31 31 35 37 39 41 41
66 69 75 79 72 75 79 88 86 84 73 75 62 53 50 50 48 46 43 43 42 36 33 30 30 29 30 31 33 35 35 34 33 33 33 34 33 33 30 29 33 37 39 41 42 44 44
Wind_Direction
290 334 344 343 352 355 359 359 359 358 359 3 4 1 355 353 354 354 352 352 353 352 349 350 351 345 338 334 333 329 329 327 307 325 279 256 249 234 230 227 238 233 226 225 221 222 216
290 321 331 334 343 345 352 356 359 1 360 2 2 3 356 353 356 359 357 357 358 357 353 354 354 347 354 350 347 333 322 328 324 317 295 278 262 248 232 234 236 233 222 215 216 210 209
286 309 318 325 334 337 342 352 358 4 4 4 4 4 358 357 359 3 3 2 2 0 357 360 359 350 354 350 350 343 331 325 337 304 295 287 254 227 215 242 231 197 215 210 214 207 205
279 297 309 318 326 330 336 345 354 2 7 6 7 3 359 2 5 7 7 6 6 4 2 5 3 1 357 358 356 2 10 347 352 339 327 313 252 233 218 210 219 223 192 207 207 205 202
280 294 305 313 319 322 330 337 349 354 5 3 6 4 2 4 7 9 9 9 9 7 6 10 11 9 0 5 19 21 19 12 36 31 20 35 102 205 207 199 209 208 209 192 203 202 200
276 293 307 313 315 317 318 327 339 349 354 0 1 360 359 2 6 8 10 12 12 10 9 14 17 15 12 11 19 19 21 36 43 56 40 58 97 47 185 172 192 187 205 197 197 201 202
278 297 306 310 313 313 314 319 333 344 344 347 350 355 354 358 1 5 7 11 14 13 11 16 20 20 19 14 18 23 26 41 36 32 38 81 56 86 100 146 135 159 182 194 201 195 198
278 292 302 308 314 314 317 313 321 335 340 340 342 348 353 354 358 1 5 11 14 16 15 19 21 23 23 20 11 17 39 45 38 45 47 40 45 91 131 151 195 232 202 179 180 187 195
272 287 301 311 317 321 321 316 310 323 336 338 341 341 347 352 358 359 4 11 13 17 18 20 24 25 25 25 27 24 29 34 51 52 42 47 38 60 80 75 141 144 199 201 190 192 192
266 279 295 308 317 323 327 321 311 311 324 337 339 340 344 350 358 360 4 9 14 17 21 21 27 26 26 28 28 29 30 25 24 18 20 28 52 63 68 72 120 135 162 175 199 192 200
259 267 283 302 315 320 323 329 318 305 313 327 339 339 339 344 354 360 4 7 12 16 21 22 25 27 25 26 29 27 18 12 9 8 42 76 69 57 72 98 121 123 137 160 178 194 199
254 259 270 286 303 317 323 328 332 317 308 315 329 344 339 339 346 356 2 5 7 16 21 22 22 26 28 25 29 31 28 25 29 52 86 82 77 77 73 93 120 132 148 179 191 202 202
251 254 258 270 286 299 313 322 331 332 316 310 315 333 346 340 342 346 356 360 2 11 17 20 22 23 29 30 29 29 32 32 33 52 76 97 81 81 78 69 111 153 169 197 216 201 198
250 253 255 261 271 283 295 306 316 326 327 318 309 317 333 344 343 340 347 353 357 4 9 18 18 22 22 27 32 34 31 33 35 43 45 50 66 103 112 106 107 123 133 115 141 171 185
248 251 257 261 266 273 280 291 302 312 317 320 315 311 318 332 339 348 344 344 350 357 1 8 19 18 20 23 30 37 37 37 40 37 43 62 86 97 102 108 113 116 70 67 136 153 168
248 249 253 257 262 267 275 281 289 299 307 311 313 315 313 322 330 336 346 346 338 345 351 358 7 18 17 16 22 29 33 41 41 43 52 55 57 63 57 87 87 53 58 33 79 97 168
248 249 252 256 260 264 268 274 281 288 296 302 303 307 312 316 319 325 334 340 341 331 337 346 355 3 16 17 13 19 26 33 43 48 48 47 62 58 55 43 39 38 36 29 15 15 8
251 251 252 254 258 263 267 270 275 280 286 292 297 301 304 308 314 316 319 325 332 336 328 329 339 347 359 15 18 9 17 23 30 34 51 60 56 61 76 54 43 30 31 23 19 15 14
250 252 253 255 256 260 265 267 271 274 278 282 288 292 298 307 308 310 309 308 310 319 326 321 318 327 337 350 4 21 11 11 12 17 20 20 25 42 54 61 46 15 6 358 2 6 356
249 250 252 255 258 258 261 265 268 271 274 276 280 285 290 297 302 303 305 301 299 298 307 314 309 305 312 323 336 350 9 12 8 8 6 4 4 6 12 11 8 12 345 342 346 339 349
248 248 251 255 256 260 262 262 265 268 271 273 275 279 284 290 295 298 302 297 293 291 292 296 302 296 290 296 301 312 332 340 347 354 355 352 350 346 335 328 324 315 297 289 287 279 270
243 248 247 249 254 258 259 261 263 264 267 270 273 276 278 284 290 291 298 292 288 290 288 286 287 289 283 276 282 281 288 312 325 329 329 323 319 317 319 319 320 319 305 284 280 281 273
244 243 246 247 251 255 258 260 260 262 263 264 265 274 277 279 280 287 293 291 288 287 289 282 277 281 279 274 267 272 275 280 290 303 315 315 316 314 307 307 298 294 296 285 288 287 280
245 242 244 247 248 249 254 256 259 260 261 263 268 270 272 274 277 280 288 287 289 286 289 287 270 268 276 271 264 263 266 272 278 281 287 293 300 309 313 313 309 305 300 296 295 293 289
243 245 242 241 246 247 250 254 255 257 259 263 268 274 269 270 274 280 284 284 283 282 289 285 272 261 264 270 264 258 258 262 270 276 281 286 288 294 298 300 306 308 302 300 297 296 297
246 243 245 244 240 243 247 249 253 255 257 261 266 272 269 269 272 280 280 279 280 280 286 284 277 265 258 263 263 257 255 258 261 266 273 278 283 290 295 298 301 301 290 287 287 291 289
246 243 243 245 244 240 242 246 248 253 255 260 265 268 270 273 274 276 275 274 278 276 281 281 280 265 257 258 260 258 256 257 259 262 264 272 278 283 286 290 294 295 293 291 291 290 291
245 242 240 242 244 247 243 241 246 252 256 258 262 265 268 271 266 269 269 272 274 269 274 275 275 264 257 260 262 260 260 259 263 265 268 270 273 278 283 290 292 291 289 289 288 290 290
243 243 241 237 240 245 247 244 246 249 254 260 262 263 264 261 267 268 269 271 267 261 264 267 265 262 262 263 264 263 264 264 267 270 273 276 279 282 287 288 288 287 288 289 291 291 290